Regional Weather Roundup
Issued by NWS

Home | Current Version | Previous Version | Graphics & Text | Print | Product List | Glossary On
Versions: 1 2 3 4 5 6 7 8 9 10 11 12 13 14 15 16 17 18 19 20 21 22 23 24 25 26 27 28 29 30 31 32 33 34 35 36 37 38 39 40 41 42 43 44 45 46 47 48 49 50
000
ASUS43 KLMK 292210
RWRKY
KENTUCKY REGIONAL WEATHER ROUNDUP
NATIONAL WEATHER SERVICE LOUISVILLE KY
600 PM EDT FRI JUL 29 2016

NOTE "FAIR" INDICATES FEW OR NO CLOUDS BELOW 12,000 FEET
WITH NO SIGNIFICANT WEATHER AND/OR OBSTRUCTIONS TO VISIBILITY.

KYZ001>023-026-027-061>063-070>075-292300-
WESTERN AND SOUTH CENTRAL KENTUCKY

CITY           SKY/WX    TMP DP  RH WIND       PRES   REMARKS
PADUCAH        MOSUNNY   87  73  62 N5        29.90S HX  94
HENDERSON      CLOUDY    75  72  88 NW6       29.90S
OWENSBORO      LGT RAIN  74  73  96 NE10      29.93R
HOPKINSVILLE   MOSUNNY   84  75  74 N12       29.93R THUNDER HX  92
BOWLING GREEN  CLOUDY    85  74  69 S12G18    29.91F HX  92
GLASGOW        CLOUDY    83  73  71 S7        29.93S
$$

KYZ024-025-028>034-038-045-046-053-292300-
NORTH CENTRAL KENTUCKY

CITY           SKY/WX    TMP DP  RH WIND       PRES   REMARKS
LOUISVILLE/SDF PTSUNNY   87  70  56 SW13      29.88S HX  92
LOUISVILLE/LOU PTSUNNY   86  70  58 W9        29.88S HX  90
FORT KNOX      PTSUNNY   84  71  66 SW9       29.89S
$$

KYZ035>037-039>044-047>052-055>060-089>105-292300-
NORTHEAST KENTUCKY

CITY           SKY/WX    TMP DP  RH WIND       PRES   REMARKS
LEXINGTON      SUNNY     84  69  60 W8        29.93R
COVINGTON      PTSUNNY   85  71  63 SW6       29.89S HX  90
FRANKFORT      SUNNY     84  69  60 SW9       29.90S
$$

KYZ054-064>069-076>088-106>120-292300-
SOUTHEAST KENTUCKY

CITY           SKY/WX    TMP DP  RH WIND       PRES   REMARKS
JACKSON        CLOUDY    73  70  90 VRB5      29.97S
LONDON         CLOUDY    74  69  85 S7        29.97F
SOMERSET       SUNNY     75  68  78 SW5       29.97S
MIDDLESBORO    PTSUNNY   73  71  96 CALM      29.99F
MONTICELLO     CLOUDY   N/A N/A N/A W14       29.97F
$$





USA.gov is the U.S. government's official web portal to all federal, state and local government web resources and services.